TimeCST,TemperatureF,Dew PointF,Humidity,Sea Level PressureIn,VisibilityMPH,Wind Direction,Wind SpeedMPH,Gust SpeedMPH,PrecipitationIn,Events,Conditions,WindDirDegrees,DateUTC
12:53 AM,-2.9,-11.9,65,30.33,10.0,NW,16.1,21.9,N/A,,Clear,310,2013-01-21 06:53:00
1:53 AM,-4.0,-13.0,65,30.34,10.0,WNW,11.5,-,N/A,,Partly Cloudy,300,2013-01-21 07:53:00
2:53 AM,-5.1,-15.0,62,30.35,10.0,WNW,12.7,20.7,N/A,,Clear,300,2013-01-21 08:53:00
3:36 AM,-5.8,-16.6,60,30.29,10.0,WNW,17.3,-,N/A,,Mostly Cloudy,290,2013-01-21 09:36:00
3:48 AM,-7.6,-16.6,65,30.28,10.0,WNW,13.8,23.0,N/A,,Scattered Clouds,300,2013-01-21 09:48:00
3:53 AM,-7.1,-17.0,62,30.36,10.0,WNW,13.8,23.0,N/A,,Scattered Clouds,300,2013-01-21 09:53:00
4:53 AM,-8.0,-18.0,61,30.36,10.0,WNW,16.1,25.3,N/A,,Clear,300,2013-01-21 10:53:00
6:53 AM,-9.9,-20.0,61,30.38,10.0,WNW,15.0,-,N/A,,Clear,300,2013-01-21 12:53:00
7:53 AM,-9.9,-20.0,61,30.39,10.0,WNW,11.5,-,N/A,,Clear,300,2013-01-21 13:53:00
8:53 AM,-9.0,-18.9,62,30.40,10.0,WNW,11.5,20.7,N/A,,Clear,300,2013-01-21 14:53:00
9:27 AM,-9.4,-18.4,65,30.33,10.0,WNW,13.8,23.0,N/A,,Mostly Cloudy,300,2013-01-21 15:27:00
9:53 AM,-8.0,-18.9,59,30.42,8.0,WNW,12.7,19.6,N/A,,Overcast,300,2013-01-21 15:53:00
10:53 AM,-7.1,-18.0,59,30.42,10.0,WNW,15.0,19.6,N/A,,Overcast,290,2013-01-21 16:53:00
11:43 AM,-5.8,-18.4,55,30.32,10.0,West,13.8,20.7,N/A,,Scattered Clouds,280,2013-01-21 17:43:00
11:53 AM,-5.1,-17.0,57,30.39,10.0,WNW,10.4,-,N/A,,Partly Cloudy,290,2013-01-21 17:53:00
12:10 PM,-5.8,-16.6,60,30.30,10.0,West,13.8,-,N/A,,Mostly Cloudy,280,2013-01-21 18:10:00
12:35 PM,-5.8,-16.6,60,30.29,10.0,West,13.8,19.6,N/A,,Scattered Clouds,270,2013-01-21 18:35:00
12:53 PM,-4.0,-17.0,54,30.37,10.0,NW,12.7,20.7,N/A,,Clear,310,2013-01-21 18:53:00
1:26 PM,-4.0,-16.6,55,30.27,10.0,WNW,13.8,20.7,N/A,,Mostly Cloudy,290,2013-01-21 19:26:00
1:53 PM,-4.0,-16.1,56,30.35,10.0,West,13.8,20.7,N/A,,Mostly Cloudy,260,2013-01-21 19:53:00
2:02 PM,-4.0,-16.6,55,30.27,10.0,West,12.7,20.7,N/A,,Scattered Clouds,280,2013-01-21 20:02:00
2:11 PM,-2.2,-16.6,50,30.27,10.0,WNW,12.7,18.4,N/A,,Mostly Cloudy,300,2013-01-21 20:11:00
2:53 PM,-4.0,-16.1,56,30.35,10.0,WNW,16.1,-,N/A,,Scattered Clouds,290,2013-01-21 20:53:00
3:00 PM,-2.2,-14.8,55,30.27,10.0,West,12.7,-,N/A,,Mostly Cloudy,280,2013-01-21 21:00:00
3:53 PM,-2.9,-15.0,56,30.35,10.0,West,12.7,-,N/A,,Mostly Cloudy,270,2013-01-21 21:53:00
4:01 PM,-2.2,-14.8,55,30.27,10.0,West,12.7,18.4,N/A,,Scattered Clouds,260,2013-01-21 22:01:00
4:53 PM,-5.1,-15.0,62,30.35,10.0,West,17.3,20.7,N/A,,Partly Cloudy,280,2013-01-21 22:53:00
5:53 PM,-5.1,-15.0,62,30.36,10.0,West,8.1,18.4,N/A,,Clear,280,2013-01-21 23:53:00
6:53 PM,-5.1,-15.0,62,30.37,10.0,West,10.4,-,N/A,,Clear,280,2013-01-22 00:53:00
7:53 PM,-5.1,-14.1,65,30.38,10.0,West,8.1,-,N/A,,Clear,280,2013-01-22 01:53:00
8:53 PM,-6.0,-14.1,68,30.37,10.0,WNW,6.9,-,N/A,,Clear,290,2013-01-22 02:53:00
9:53 PM,-6.0,-14.1,68,30.37,10.0,WSW,4.6,-,N/A,,Clear,250,2013-01-22 03:53:00
10:53 PM,-7.1,-14.1,72,30.37,10.0,Calm,Calm,-,N/A,,Clear,0,2013-01-22 04:53:00
11:53 PM,-5.1,-13.0,69,30.36,10.0,NW,9.2,-,N/A,,Clear,310,2013-01-22 05:53:00